Location: Unspecified
(0.0000°N, 0.0000°E)
Time: 06:51:17
(UTC+02:00)

Meteor PRIRODA - Visible Passes

Search period start: 27 April 2018 00:00
Search period end: 07 May 2018 00:00
Orbit: 492 x 514 km, 97.5° (Epoch: 26 April)

Date Brightness Start Highest point End Pass type
(mag) Time Alt. Az. Time Alt. Az. Time Alt. Az.
27 Apr 6.5 05:42:29 10° NE 05:43:14 15° NE 05:43:14 15° NE visible
28 Apr 5.9 06:58:54 10° NW 06:59:13 11° NW 06:59:13 11° NW visible
29 Apr 5.5 06:39:02 10° NNW 06:40:26 18° NW 06:40:26 18° NW visible
30 Apr 5.2 06:19:55 10° N 06:21:38 25° NNW 06:21:38 25° NNW visible
01 May 5.6 06:01:14 10° NNE 06:02:51 25° NNE 06:02:51 25° NNE visible
02 May 6.3 05:42:56 10° NE 05:44:04 17° NE 05:44:04 17° NE visible
03 May 7.1 05:25:12 10° ENE 05:25:16 10° ENE 05:25:16 10° ENE visible
03 May 5.8 06:59:22 10° NW 07:00:01 12° WNW 07:00:01 12° WNW visible
04 May 5.3 06:39:29 10° NNW 06:41:12 20° NW 06:41:12 20° NW visible
05 May 5.0 06:20:21 10° N 06:22:24 29° NNW 06:22:24 29° NNW visible
06 May 5.3 06:01:39 10° NNE 06:03:35 29° NNE 06:03:35 29° NNE visible
